TimeCST,TemperatureF,Dew PointF,Humidity,Sea Level PressureIn,VisibilityMPH,Wind Direction,Wind SpeedMPH,Gust SpeedMPH,PrecipitationIn,Events,Conditions,WindDirDegrees,DateUTC
12:15 AM,39.2,26.6,61,30.52,10.0,North,10.4,-,N/A,,Clear,10,2013-11-13 06:15:00
12:35 AM,39.2,26.6,61,30.52,10.0,North,10.4,-,N/A,,Clear,10,2013-11-13 06:35:00
12:55 AM,39.2,26.6,61,30.52,10.0,North,9.2,17.3,N/A,,Clear,360,2013-11-13 06:55:00
1:15 AM,39.2,26.6,61,30.51,10.0,North,9.2,-,N/A,,Clear,10,2013-11-13 07:15:00
1:35 AM,37.4,26.6,65,30.51,10.0,North,9.2,-,N/A,,Clear,10,2013-11-13 07:35:00
1:55 AM,37.4,26.6,65,30.52,10.0,NNE,9.2,-,N/A,,Clear,20,2013-11-13 07:55:00
2:15 AM,37.4,26.6,65,30.51,10.0,North,8.1,-,N/A,,Clear,10,2013-11-13 08:15:00
2:35 AM,37.4,26.6,65,30.52,10.0,North,8.1,16.1,N/A,,Clear,10,2013-11-13 08:35:00
2:55 AM,35.6,24.8,65,30.52,10.0,North,5.8,-,N/A,,Clear,10,2013-11-13 08:55:00
3:15 AM,35.6,24.8,65,30.52,10.0,North,9.2,-,N/A,,Clear,10,2013-11-13 09:15:00
3:35 AM,35.6,24.8,65,30.52,10.0,North,8.1,-,N/A,,Clear,10,2013-11-13 09:35:00
3:55 AM,35.6,24.8,65,30.53,10.0,North,5.8,-,N/A,,Clear,10,2013-11-13 09:55:00
4:15 AM,33.8,24.8,70,30.53,10.0,NNE,4.6,-,N/A,,Clear,20,2013-11-13 10:15:00
4:35 AM,33.8,24.8,70,30.53,10.0,North,8.1,-,N/A,,Clear,10,2013-11-13 10:35:00
4:55 AM,33.8,24.8,70,30.54,10.0,North,8.1,-,N/A,,Clear,10,2013-11-13 10:55:00
5:15 AM,33.8,24.8,70,30.54,10.0,North,9.2,-,N/A,,Clear,10,2013-11-13 11:15:00
5:35 AM,33.8,23.0,65,30.54,10.0,North,6.9,-,N/A,,Clear,10,2013-11-13 11:35:00
5:55 AM,33.8,23.0,65,30.55,10.0,NNE,5.8,-,N/A,,Clear,20,2013-11-13 11:55:00
6:15 AM,33.8,23.0,65,30.55,10.0,North,6.9,-,N/A,,Clear,10,2013-11-13 12:15:00
6:35 AM,33.8,23.0,65,30.56,10.0,North,6.9,-,N/A,,Clear,10,2013-11-13 12:35:00
6:55 AM,33.8,23.0,65,30.56,10.0,NNE,8.1,-,N/A,,Clear,20,2013-11-13 12:55:00
7:15 AM,35.6,23.0,60,30.57,10.0,NNE,10.4,-,N/A,,Clear,20,2013-11-13 13:15:00
7:35 AM,35.6,23.0,60,30.57,10.0,NNE,6.9,16.1,N/A,,Clear,20,2013-11-13 13:35:00
7:55 AM,37.4,21.2,52,30.57,10.0,NNE,9.2,-,N/A,,Clear,30,2013-11-13 13:55:00
8:15 AM,39.2,21.2,49,30.57,10.0,NE,13.8,20.7,N/A,,Clear,40,2013-11-13 14:15:00
8:35 AM,41.0,21.2,45,30.57,10.0,NNE,9.2,-,N/A,,Clear,20,2013-11-13 14:35:00
8:55 AM,41.0,21.2,45,30.57,10.0,ENE,6.9,-,N/A,,Clear,60,2013-11-13 14:55:00
9:15 AM,42.8,21.2,42,30.56,10.0,NE,9.2,-,N/A,,Clear,40,2013-11-13 15:15:00
9:35 AM,44.6,19.4,37,30.56,10.0,NNE,9.2,-,N/A,,Clear,30,2013-11-13 15:35:00
9:55 AM,46.4,19.4,34,30.56,10.0,NNE,9.2,-,N/A,,Clear,30,2013-11-13 15:55:00
10:15 AM,46.4,19.4,34,30.56,10.0,North,10.4,16.1,N/A,,Clear,360,2013-11-13 16:15:00
10:35 AM,48.2,19.4,32,30.54,10.0,North,8.1,-,N/A,,Clear,10,2013-11-13 16:35:00
10:55 AM,50.0,19.4,30,30.54,10.0,NNE,8.1,-,N/A,,Clear,30,2013-11-13 16:55:00
11:15 AM,50.0,19.4,30,30.53,10.0,ENE,6.9,-,N/A,,Clear,60,2013-11-13 17:15:00
11:35 AM,51.8,17.6,26,30.52,10.0,NNE,6.9,-,N/A,,Clear,30,2013-11-13 17:35:00
11:55 AM,53.6,17.6,24,30.50,10.0,North,6.9,16.1,N/A,,Clear,360,2013-11-13 17:55:00
12:15 PM,53.6,19.4,26,30.48,10.0,North,12.7,16.1,N/A,,Clear,360,2013-11-13 18:15:00
12:35 PM,55.4,19.4,25,30.48,10.0,North,9.2,-,N/A,,Clear,10,2013-11-13 18:35:00
12:55 PM,55.4,19.4,25,30.46,10.0,North,8.1,-,N/A,,Clear,10,2013-11-13 18:55:00
1:15 PM,57.2,17.6,21,30.46,10.0,NNE,5.8,17.3,N/A,,Clear,20,2013-11-13 19:15:00
1:35 PM,57.2,19.4,23,30.46,10.0,North,9.2,-,N/A,,Clear,10,2013-11-13 19:35:00
1:55 PM,57.2,19.4,23,30.45,10.0,NE,8.1,-,N/A,,Clear,40,2013-11-13 19:55:00
2:15 PM,57.2,17.6,21,30.44,10.0,NNE,4.6,-,N/A,,Clear,30,2013-11-13 20:15:00
2:35 PM,57.2,19.4,23,30.44,10.0,North,9.2,-,N/A,,Clear,360,2013-11-13 20:35:00
2:55 PM,57.2,17.6,21,30.44,10.0,NE,6.9,-,N/A,,Clear,50,2013-11-13 20:55:00
3:15 PM,57.2,19.4,23,30.44,10.0,NNE,8.1,-,N/A,,Clear,30,2013-11-13 21:15:00
3:35 PM,57.2,19.4,23,30.45,10.0,NNE,6.9,-,N/A,,Clear,30,2013-11-13 21:35:00
3:55 PM,55.4,19.4,25,30.44,10.0,NNE,5.8,-,N/A,,Clear,20,2013-11-13 21:55:00
4:15 PM,55.4,21.2,26,30.44,10.0,NNE,4.6,-,N/A,,Clear,30,2013-11-13 22:15:00
4:35 PM,51.8,23.0,33,30.44,10.0,NNE,4.6,-,N/A,,Clear,30,2013-11-13 22:35:00
4:55 PM,51.8,23.0,33,30.44,10.0,Calm,Calm,-,N/A,,Clear,0,2013-11-13 22:55:00
5:15 PM,46.4,30.2,53,30.45,10.0,NNE,3.5,-,N/A,,Clear,20,2013-11-13 23:15:00
5:35 PM,44.6,32.0,61,30.45,10.0,North,3.5,-,N/A,,Clear,10,2013-11-13 23:35:00
5:55 PM,42.8,32.0,66,30.45,10.0,North,3.5,-,N/A,,Clear,10,2013-11-13 23:55:00
6:15 PM,41.0,32.0,70,30.45,10.0,North,3.5,-,N/A,,Clear,10,2013-11-14 00:15:00
6:35 PM,41.0,32.0,70,30.46,10.0,North,3.5,-,N/A,,Clear,350,2013-11-14 00:35:00
6:55 PM,41.0,32.0,70,30.46,10.0,Calm,Calm,-,N/A,,Clear,0,2013-11-14 00:55:00
7:15 PM,41.0,32.0,70,30.46,10.0,Calm,Calm,-,N/A,,Clear,0,2013-11-14 01:15:00
7:35 PM,39.2,32.0,75,30.47,10.0,NNE,3.5,-,N/A,,Clear,20,2013-11-14 01:35:00
7:55 PM,39.2,32.0,75,30.47,10.0,Calm,Calm,-,N/A,,Clear,0,2013-11-14 01:55:00
8:15 PM,39.2,32.0,75,30.47,10.0,NNE,3.5,-,N/A,,Clear,20,2013-11-14 02:15:00
8:35 PM,39.2,30.2,70,30.48,10.0,Calm,Calm,-,N/A,,Clear,0,2013-11-14 02:35:00
8:55 PM,39.2,32.0,75,30.48,10.0,Calm,Calm,-,N/A,,Clear,0,2013-11-14 02:55:00
9:15 PM,39.2,32.0,75,30.48,10.0,Calm,Calm,-,N/A,,Clear,0,2013-11-14 03:15:00
9:35 PM,39.2,32.0,75,30.47,10.0,Calm,Calm,-,N/A,,Clear,0,2013-11-14 03:35:00
9:55 PM,35.6,32.0,87,30.47,10.0,Calm,Calm,-,N/A,,Clear,0,2013-11-14 03:55:00
10:15 PM,35.6,32.0,87,30.46,10.0,Calm,Calm,-,N/A,,Clear,0,2013-11-14 04:15:00
10:35 PM,35.6,30.2,81,30.46,10.0,Calm,Calm,-,N/A,,Clear,0,2013-11-14 04:35:00
10:55 PM,35.6,30.2,81,30.45,10.0,Calm,Calm,-,N/A,,Clear,0,2013-11-14 04:55:00
11:15 PM,35.6,30.2,81,30.45,10.0,Calm,Calm,-,N/A,,Clear,0,2013-11-14 05:15:00
11:35 PM,35.6,30.2,81,30.44,10.0,Calm,Calm,-,N/A,,Clear,0,2013-11-14 05:35:00
11:55 PM,35.6,30.2,81,30.44,10.0,Calm,Calm,-,N/A,,Clear,0,2013-11-14 05:55:00